Sanford, FL

11:11 AM EDT on May 23, 2017 (GMT -0400)
Orlando Sanford

Weather History for KSFB - December, 2012

Change the Weather History Date:

Monday, December 10, 2012

  Actual Average Record
Temperature  
Mean Temperature 70 °F -  
Max Temperature 80 °F 75 °F 84 °F (1961)
Min Temperature 60 °F 50 °F 35 °F (1962)
Cooling Degree Days 5    
Growing Degree Days 20 (Base 50)    
Moisture  
Dew Point 66 °F    
Average Humidity 88    
Maximum Humidity 100    
Minimum Humidity 65    
Precipitation  
Precipitation 0.05 in - - ()
Sea Level Pressure  
Sea Level Pressure 29.95 in    
Wind  
Wind Speed 3 mph (SSW)    
Max Wind Speed 13 mph    
Max Gust Speed 18 mph    
Visibility 6 miles    
Events Fog , Rain    
Averages and records for this station are not official NWS values.
T = Trace of Precipitation, MM = Missing Value Source: NWS Daily Summary

Daily Weather History Graph

Daily Weather History Graph

Search for Another Location

Airport or City:

Trip Planner

Search our weather history database for the weather conditions in past years. The results will help you decide how hot, cold, wet, or windy it might be!

Date:

Astronomy

Dec. 10, 2012 Rise Set
Actual Time 7:07 AM EST 5:28 PM EST
Civil Twilight 6:41 AM EST 5:54 PM EST
Nautical Twilight 6:12 AM EST 6:23 PM EST
Astronomical Twilight 5:43 AM EST 6:52 PM EST
Moon 3:58 AM EST (12/10) 3:09 PM EST (12/10)
Length of Visible Light 11h 12m
Length of Day
10h 20m
Waning Crescent, 10% of the Moon is Illuminated
Dec 10
Waning Crescent
Dec 13
New
Dec 20
First Quarter
Dec 28
Full
Jan 4
Last Quarter

Hourly Weather History & Observations

Time (EST) Temp. Heat Index Dew Point Humidity Pressure Visibility Wind Dir Wind Speed Gust Speed Precip Events Conditions
12:53 AM 63.0 °F - 61.0 °F 93% 30.02 in 9.0 mi Calm Calm - N/A   Clear
1:53 AM 63.0 °F - 61.0 °F 93% 30.01 in 10.0 mi Calm Calm - N/A   Clear
2:53 AM 62.1 °F - 60.1 °F 93% 29.99 in 9.0 mi Calm Calm - N/A   Partly Cloudy
3:08 AM 60.8 °F - 59.0 °F 94% 29.98 in 2.0 mi Calm Calm - N/A   Partly Cloudy
3:10 AM 60.8 °F - 59.0 °F 94% 29.98 in 1.0 mi Calm Calm - N/A   Mist
3:17 AM 62.6 °F - 60.8 °F 94% 29.98 in 0.8 mi Calm Calm - N/A   Mist
3:21 AM 60.8 °F - 60.8 °F 100% 29.99 in 2.5 mi Calm Calm - N/A   Scattered Clouds
3:25 AM 60.8 °F - 60.8 °F 100% 29.99 in 7.0 mi Calm Calm - N/A   Mostly Cloudy
3:40 AM 62.6 °F - 60.8 °F 94% 29.98 in 9.0 mi Calm Calm - N/A   Overcast
3:53 AM 64.0 °F - 62.1 °F 93% 29.98 in 9.0 mi Calm Calm - N/A   Overcast
4:04 AM 64.4 °F - 62.6 °F 94% 29.98 in 1.5 mi Calm Calm - N/A   Overcast
4:10 AM 64.4 °F - 62.6 °F 94% 29.98 in 0.5 mi Calm Calm - N/A Fog Fog
4:18 AM 64.4 °F - 64.4 °F 100% 29.98 in 0.2 mi Calm Calm - N/A Fog Fog
4:53 AM 64.9 °F - 64.0 °F 97% 29.97 in 0.2 mi Calm Calm - N/A Fog Fog
5:04 AM 64.4 °F - 64.4 °F 100% 29.98 in 0.2 mi Calm Calm - N/A Fog Fog
5:40 AM 66.2 °F - 66.2 °F 100% 29.97 in 0.8 mi Calm Calm - N/A   Mist
5:53 AM 66.0 °F - 64.9 °F 96% 29.97 in 0.5 mi Calm Calm - N/A Fog Fog
6:01 AM 66.2 °F - 64.4 °F 94% 29.98 in 0.2 mi Calm Calm - N/A Fog Fog
6:17 AM 66.2 °F - 64.4 °F 94% 29.98 in 0.2 mi Calm Calm - N/A Fog Fog
8:53 AM 69.1 °F - 68.0 °F 96% 29.99 in 0.2 mi South 3.5 mph - N/A Fog Fog
9:20 AM 69.8 °F - 69.8 °F 100% 30.00 in 1.0 mi South 4.6 mph - N/A   Overcast
9:29 AM 69.8 °F - 69.8 °F 100% 30.00 in 3.0 mi SSW 5.8 mph - N/A   Overcast
9:53 AM 71.1 °F - 69.1 °F 93% 30.00 in 8.0 mi South 5.8 mph - N/A   Overcast
10:06 AM 71.6 °F - 69.8 °F 94% 30.00 in 10.0 mi South 6.9 mph - N/A   Mostly Cloudy
10:53 AM 77.0 °F - 68.0 °F 74% 29.98 in 10.0 mi South 10.4 mph - N/A   Partly Cloudy
11:53 AM 77.0 °F - 68.0 °F 74% 29.96 in 10.0 mi South 10.4 mph - N/A   Clear
12:41 PM 78.8 °F - 68.0 °F 69% 29.94 in 10.0 mi SSW 10.4 mph 18.4 mph N/A   Mostly Cloudy
12:53 PM 80.1 °F 82.7 °F 68.0 °F 67% 29.93 in 10.0 mi SSW 11.5 mph 18.4 mph N/A   Overcast
1:18 PM 80.6 °F 83.2 °F 68.0 °F 65% 29.92 in 10.0 mi SSW 8.1 mph - N/A   Overcast
1:51 PM 78.8 °F - 68.0 °F 69% 29.91 in 10.0 mi South 5.8 mph - N/A   Overcast
1:53 PM 79.0 °F - 68.0 °F 69% 29.91 in 10.0 mi South 5.8 mph - N/A   Mostly Cloudy
2:05 PM 78.8 °F - 69.8 °F 74% 29.90 in 10.0 mi South 8.1 mph - N/A   Overcast
2:53 PM 79.0 °F - 69.1 °F 72% 29.87 in 10.0 mi South 6.9 mph - N/A   Overcast
3:53 PM 78.1 °F - 70.0 °F 76% 29.85 in 10.0 mi South 5.8 mph - N/A   Overcast
4:53 PM 75.0 °F - 71.1 °F 87% 29.84 in 8.0 mi Calm Calm - 0.01 in Rain Light Rain
5:53 PM 75.0 °F - 72.0 °F 90% 29.84 in 10.0 mi SW 6.9 mph - 0.02 in   Overcast
6:53 PM 75.0 °F - 72.0 °F 90% 29.87 in 10.0 mi South 5.8 mph - N/A   Overcast
7:53 PM 75.9 °F - 70.0 °F 82% 29.88 in 10.0 mi SSW 5.8 mph - N/A   Overcast
8:53 PM 75.9 °F - 71.1 °F 85% 29.90 in 10.0 mi SSW 9.2 mph - 0.01 in Rain Light Rain
9:53 PM 75.0 °F - 70.0 °F 84% 29.87 in 10.0 mi SSW 11.5 mph - 0.01 in   Clear
10:53 PM 75.0 °F - 70.0 °F 84% 29.89 in 10.0 mi WSW 12.7 mph - 0.00 in   Partly Cloudy
11:26 PM 73.4 °F - 69.8 °F 88% 29.91 in 10.0 mi WSW 11.5 mph - N/A   Mostly Cloudy
11:43 PM 73.4 °F - 69.8 °F 88% 29.91 in 10.0 mi West 10.4 mph 18.4 mph N/A   Partly Cloudy
11:53 PM 73.0 °F - 69.1 °F 87% 29.91 in 10.0 mi West 12.7 mph - N/A   Partly Cloudy